Weather in Ozerki

Russia / Tambov Oblast     52°49′13″N   40°46′31″E
temp.,
°C
wind,
m/s
gust,
m/s
humid.,
%
clouds,
%
prec.,
mm/h
press.,
hPa
HPBL,
m
1 march, mon
mon100:00−9nne129592 0.1 102021
03:00−10nne129671 0.1 102221
06:00−11n229778 0.0 102321
09:00−10n129681 0.1 102633
12:00−7nw229164 0.0 1026243
15:00−4w249176 0.0 1026412
18:00−6wsw449370 0.0 102573
21:00−6wsw5119543 0.0 1024227
2 march, tue
tue200:00−4wsw6139379 0.0 1021390
03:00−3wsw6129490 0.1 1019517
06:00−1wsw71394100 0.1 1015561
09:00+1wsw71394100 0.1 1013620
12:00+1w71298100 0.1 1010547
15:00+1w612100100 0.3 1009518
18:00+1nw4998100 0.1 1009545
21:00−2nw4895100 0.3 1009234
3 march, wed
wed300:00−3nw489298 0.1 1009152
03:00−3nw4119598 0.1 1011360
06:00−4nw6139380 0.1 1011585
09:00−5nnw7139189 0.2 1013706
12:00−4nnw71187100 0.1 1015934
15:00−3nw71083100 0.1 1016827
18:00−5wnw369360 0.0 1016135
21:00−2w5119379 0.1 1017531
4 march, thu
thu400:00−3w5119394 0.1 1016418
03:00−2w6119397 0.2 1015473
06:00−4wsw5119387 0.0 1013315
09:00−1wsw6128593 0.0 1011719
12:000wsw8158870 0.0 1008684
15:00+1wsw9178481 0.0 1006812
18:000wsw81776100 0.0 1004761
21:00+1wsw81778100 0.0 1003757
5 march, fri
fri500:00+1wsw7159298 0.1 1003657
03:00−1wnw4119399 0.6 1004348
06:00−3nw3493100 0.0 1007115
09:00−4n2494100 0.0 1009179
12:00−3n239196 0.0 1010240
15:00−3nne229098 0.0 1012244
18:00−5ne2292100 0.0 101321
21:00−6ene238997 0.0 101427